GIRYN EGKA-EGKA

Flight info

Callsign GIRYN
Flight time N/A
Altitude 3000
Route VFR DEPARTURE TO THE SOUTH
Aircraft P28A/L-V/N

Departure

Time 2026-04-27 05:28
Airport Brighton City Airport (EGKA)

Arrival

Time N/A
Airport Brighton City Airport (EGKA)
Time Latitude Longitude Altitude Speed Heading
2026-04-27 05:05 50.83447 -0.29060 11 ft 0 kts 254°
2026-04-27 05:16 50.83448 -0.29079 8 ft 1 kts 308°
2026-04-27 05:16 50.83460 -0.29115 11 ft 6 kts 259°
2026-04-27 05:16 50.83449 -0.29182 11 ft 7 kts 253°
2026-04-27 05:16 50.83435 -0.29263 11 ft 8 kts 251°
2026-04-27 05:17 50.83409 -0.29352 11 ft 10 kts 244°
2026-04-27 05:17 50.83377 -0.29449 11 ft 10 kts 244°
2026-04-27 05:17 50.83344 -0.29552 11 ft 11 kts 240°
2026-04-27 05:17 50.83311 -0.29654 11 ft 10 kts 247°
2026-04-27 05:18 50.83281 -0.29755 10 ft 11 kts 246°
2026-04-27 05:18 50.83252 -0.29842 11 ft 5 kts 244°
2026-04-27 05:18 50.83249 -0.29851 11 ft 0 kts 245°
2026-04-27 05:26 50.83246 -0.29861 11 ft 5 kts 245°
2026-04-27 05:26 50.83250 -0.29911 11 ft 5 kts 320°
2026-04-27 05:26 50.83327 -0.29877 11 ft 32 kts 21°
2026-04-27 05:27 50.83678 -0.29659 14 ft 71 kts 21°
2026-04-27 05:27 50.84148 -0.29369 126 ft 70 kts 18°
2026-04-27 05:27 50.84605 -0.29169 276 ft 69 kts 10°
2026-04-27 05:27 50.85057 -0.28999 459 ft 70 kts 13°
2026-04-27 05:28 50.85467 -0.28603 676 ft 70 kts 51°
2026-04-27 05:28 50.85541 -0.27822 851 ft 77 kts 98°
2026-04-27 05:28 50.85274 -0.27057 1055 ft 83 kts 124°
2026-04-27 05:28 50.84891 -0.26344 1233 ft 88 kts 126°
2026-04-27 05:29 50.84486 -0.25633 1468 ft 87 kts 129°
2026-04-27 05:29 50.84036 -0.24966 1659 ft 88 kts 133°
2026-04-27 05:29 50.83579 -0.24315 1852 ft 90 kts 134°
2026-04-27 05:29 50.83101 -0.23686 2054 ft 89 kts 137°
2026-04-27 05:30 50.82642 -0.23026 2244 ft 89 kts 129°
2026-04-27 05:30 50.82238 -0.22289 2436 ft 88 kts 124°
2026-04-27 05:30 50.81860 -0.21523 2618 ft 88 kts 123°
2026-04-27 05:30 50.81485 -0.20765 2801 ft 87 kts 123°
2026-04-27 05:31 50.81097 -0.20015 2967 ft 88 kts 123°
2026-04-27 05:31 50.80709 -0.19255 3015 ft 90 kts 124°
2026-04-27 05:31 50.80326 -0.18475 3043 ft 90 kts 120°
2026-04-27 05:31 50.79988 -0.17647 3058 ft 91 kts 116°
2026-04-27 05:32 50.79698 -0.16766 3073 ft 91 kts 110°
2026-04-27 05:32 50.79505 -0.15824 3095 ft 89 kts 93°
2026-04-27 05:32 50.79455 -0.14855 3115 ft 89 kts 90°
2026-04-27 05:32 50.79430 -0.13881 3123 ft 90 kts 89°
2026-04-27 05:33 50.79416 -0.12890 3128 ft 90 kts 88°
2026-04-27 05:33 50.79433 -0.11885 3119 ft 91 kts 85°
2026-04-27 05:33 50.79486 -0.10870 3070 ft 95 kts 82°
2026-04-27 05:33 50.79571 -0.09838 3046 ft 95 kts 80°
2026-04-27 05:34 50.79618 -0.08790 3023 ft 96 kts 90°
2026-04-27 05:34 50.79578 -0.07743 3011 ft 96 kts 90°
2026-04-27 05:34 50.79552 -0.06703 3027 ft 92 kts 88°
2026-04-27 05:34 50.79564 -0.05686 3022 ft 92 kts 86°
2026-04-27 05:35 50.79359 -0.04743 3019 ft 97 kts 128°
2026-04-27 05:35 50.78713 -0.04431 3040 ft 103 kts 179°
2026-04-27 05:35 50.78065 -0.04949 3021 ft 110 kts 225°
2026-04-27 05:35 50.77769 -0.06038 3022 ft 110 kts 268°
2026-04-27 05:36 50.77784 -0.07243 3009 ft 111 kts 274°
2026-04-27 05:36 50.77784 -0.08447 3022 ft 109 kts 273°
2026-04-27 05:36 50.77794 -0.09653 3006 ft 110 kts 274°
2026-04-27 05:36 50.77827 -0.10856 2999 ft 110 kts 277°
2026-04-27 05:37 50.77916 -0.12048 3003 ft 109 kts 282°
2026-04-27 05:37 50.78009 -0.13238 3000 ft 109 kts 278°
2026-04-27 05:37 50.78054 -0.14434 2994 ft 110 kts 276°
2026-04-27 05:37 50.78088 -0.15634 2999 ft 108 kts 275°
2026-04-27 05:38 50.78101 -0.16827 2994 ft 110 kts 273°
2026-04-27 05:38 50.78080 -0.18003 3047 ft 106 kts 271°
2026-04-27 05:38 50.78068 -0.19183 3040 ft 108 kts 272°
2026-04-27 05:38 50.78063 -0.20356 3058 ft 107 kts 271°
2026-04-27 05:39 50.78023 -0.21542 3061 ft 108 kts 269°
2026-04-27 05:39 50.77969 -0.22721 3064 ft 108 kts 267°
2026-04-27 05:39 50.77883 -0.23897 3080 ft 108 kts 264°
2026-04-27 05:39 50.77756 -0.25069 3080 ft 109 kts 262°
2026-04-27 05:40 50.77636 -0.26248 3086 ft 109 kts 263°
2026-04-27 05:40 50.77528 -0.27426 3095 ft 108 kts 265°
2026-04-27 05:40 50.77454 -0.28604 3102 ft 108 kts 269°
2026-04-27 05:40 50.77404 -0.29786 3116 ft 107 kts 269°
2026-04-27 05:41 50.77337 -0.30966 3119 ft 108 kts 266°
2026-04-27 05:41 50.77248 -0.32147 3134 ft 108 kts 264°
2026-04-27 05:41 50.77100 -0.33309 3151 ft 109 kts 256°
2026-04-27 05:41 50.76894 -0.34459 3148 ft 109 kts 256°
2026-04-27 05:42 50.76701 -0.35615 3149 ft 109 kts 260°
2026-04-27 05:42 50.76607 -0.36795 3158 ft 108 kts 270°
2026-04-27 05:42 50.76581 -0.37960 3172 ft 107 kts 271°
2026-04-27 05:42 50.76541 -0.39133 3175 ft 104 kts 268°
2026-04-27 05:43 50.76476 -0.40208 3185 ft 94 kts 265°
2026-04-27 05:43 50.76374 -0.41222 3169 ft 94 kts 262°
2026-04-27 05:43 50.76243 -0.42226 3174 ft 91 kts 258°
2026-04-27 05:43 50.76073 -0.43158 3170 ft 85 kts 251°
2026-04-27 05:44 50.75865 -0.44003 3117 ft 83 kts 255°
2026-04-27 05:44 50.75792 -0.44891 3078 ft 82 kts 268°
2026-04-27 05:44 50.75702 -0.45756 3076 ft 80 kts 256°
2026-04-27 05:44 50.75512 -0.46583 3060 ft 80 kts 255°
2026-04-27 05:45 50.75427 -0.47449 3038 ft 79 kts 270°
2026-04-27 05:45 50.75383 -0.48313 3013 ft 80 kts 269°
2026-04-27 05:45 50.75354 -0.49183 3006 ft 79 kts 274°
2026-04-27 05:45 50.75332 -0.50050 2993 ft 79 kts 268°
2026-04-27 05:46 50.75304 -0.50916 2981 ft 78 kts 273°
2026-04-27 05:46 50.75297 -0.51779 2956 ft 79 kts 275°
2026-04-27 05:46 50.75294 -0.52645 2935 ft 79 kts 275°
2026-04-27 05:46 50.75305 -0.53517 2910 ft 84 kts 276°
2026-04-27 05:47 50.75339 -0.54503 2945 ft 96 kts 279°
2026-04-27 05:47 50.75351 -0.55577 3034 ft 99 kts 273°
2026-04-27 05:47 50.75326 -0.56700 3076 ft 105 kts 269°
2026-04-27 05:47 50.75276 -0.57883 3103 ft 110 kts 269°
2026-04-27 05:48 50.75215 -0.59090 3132 ft 113 kts 266°
2026-04-27 05:48 50.75134 -0.60348 3161 ft 115 kts 266°
2026-04-27 05:48 50.75034 -0.61596 3205 ft 113 kts 266°
2026-04-27 05:48 50.74908 -0.62834 3228 ft 115 kts 248°
2026-04-27 05:49 50.74323 -0.63604 3252 ft 112 kts 189°
2026-04-27 05:49 50.73614 -0.63355 3317 ft 101 kts 141°
2026-04-27 05:49 50.73193 -0.62532 3346 ft 96 kts 106°
2026-04-27 05:49 50.73082 -0.61515 3381 ft 95 kts 91°
2026-04-27 05:50 50.73065 -0.60531 3483 ft 89 kts 85°
2026-04-27 05:50 50.73124 -0.59548 3521 ft 91 kts 81°
2026-04-27 05:50 50.73195 -0.58558 3561 ft 93 kts 81°
2026-04-27 05:50 50.73251 -0.57514 3566 ft 95 kts 85°
2026-04-27 05:51 50.73223 -0.56463 3592 ft 96 kts 90°
2026-04-27 05:51 50.73192 -0.55393 3587 ft 99 kts 90°
2026-04-27 05:51 50.73143 -0.54320 3608 ft 98 kts 91°
2026-04-27 05:51 50.73096 -0.53231 3598 ft 100 kts 91°
2026-04-27 05:52 50.73086 -0.52150 3610 ft 98 kts 84°
2026-04-27 05:52 50.73183 -0.51090 3590 ft 96 kts 77°
2026-04-27 05:52 50.73326 -0.50044 3473 ft 99 kts 76°
2026-04-27 05:52 50.73408 -0.48975 3389 ft 98 kts 85°
2026-04-27 05:53 50.73400 -0.47887 3292 ft 99 kts 89°
2026-04-27 05:53 50.73391 -0.46801 3215 ft 98 kts 86°
2026-04-27 05:53 50.73450 -0.45726 3127 ft 98 kts 81°
2026-04-27 05:53 50.73567 -0.44663 3040 ft 99 kts 78°
2026-04-27 05:54 50.73640 -0.43576 2964 ft 99 kts 82°
2026-04-27 05:54 50.73734 -0.42507 2896 ft 98 kts 79°
2026-04-27 05:54 50.73840 -0.41442 2818 ft 99 kts 81°
2026-04-27 05:54 50.73921 -0.40366 2735 ft 99 kts 81°
2026-04-27 05:55 50.73985 -0.39278 2654 ft 99 kts 84°
2026-04-27 05:55 50.74045 -0.38203 2589 ft 99 kts 83°
2026-04-27 05:55 50.74100 -0.37114 2507 ft 100 kts 83°
2026-04-27 05:55 50.74157 -0.36024 2438 ft 100 kts 83°
2026-04-27 05:56 50.74230 -0.34942 2379 ft 99 kts 81°
2026-04-27 05:56 50.74383 -0.33884 2298 ft 100 kts 72°
2026-04-27 05:56 50.74534 -0.32811 2224 ft 100 kts 83°
2026-04-27 05:56 50.74489 -0.31708 2164 ft 101 kts 96°
2026-04-27 05:57 50.74373 -0.30631 2121 ft 100 kts 95°
2026-04-27 05:57 50.74302 -0.29534 2054 ft 101 kts 92°
2026-04-27 05:57 50.74251 -0.28442 2040 ft 98 kts 90°
2026-04-27 05:57 50.74265 -0.27364 2052 ft 97 kts 84°
2026-04-27 05:58 50.74318 -0.26288 2050 ft 99 kts 84°
2026-04-27 05:58 50.74362 -0.25206 2061 ft 98 kts 85°
2026-04-27 05:58 50.74372 -0.24125 2060 ft 99 kts 88°
2026-04-27 05:58 50.74383 -0.23041 2078 ft 98 kts 85°
2026-04-27 05:59 50.74426 -0.21968 2070 ft 98 kts 83°
2026-04-27 05:59 50.74470 -0.20890 2063 ft 99 kts 85°
2026-04-27 05:59 50.74494 -0.19808 2076 ft 98 kts 88°
2026-04-27 05:59 50.74474 -0.18734 2076 ft 98 kts 89°
2026-04-27 06:00 50.74437 -0.16564 2078 ft 98 kts 88°
2026-04-27 06:00 50.74437 -0.15489 2078 ft 99 kts 88°
2026-04-27 06:00 50.74430 -0.14410 2103 ft 97 kts 86°
2026-04-27 06:01 50.74445 -0.13343 2105 ft 99 kts 87°
2026-04-27 06:01 50.74436 -0.12266 2119 ft 97 kts 89°
2026-04-27 06:01 50.74406 -0.11189 2110 ft 99 kts 90°
2026-04-27 06:01 50.74381 -0.10120 2141 ft 97 kts 89°
2026-04-27 06:02 50.74369 -0.09045 2127 ft 99 kts 88°
2026-04-27 06:02 50.74370 -0.07964 2148 ft 98 kts 88°
2026-04-27 06:02 50.74371 -0.06893 2170 ft 97 kts 86°
2026-04-27 06:02 50.74379 -0.05821 2185 ft 98 kts 87°
2026-04-27 06:03 50.74382 -0.05109 2204 ft 98 kts 88°
2026-04-27 06:03 50.74397 -0.04042 2219 ft 97 kts 86°
2026-04-27 06:03 50.74438 -0.02971 2225 ft 98 kts 84°
2026-04-27 06:03 50.74510 -0.01909 2259 ft 97 kts 82°
2026-04-27 06:04 50.74594 -0.00856 2261 ft 98 kts 80°
2026-04-27 06:04 50.74725 0.00194 2288 ft 95 kts 68°
2026-04-27 06:04 50.75193 0.00846 2338 ft 95 kts 16°
2026-04-27 06:04 50.75815 0.00503 2340 ft 104 kts 316°
2026-04-27 06:05 50.75991 -0.00622 2327 ft 111 kts 268°
2026-04-27 06:05 50.76030 -0.01826 2327 ft 110 kts 279°
2026-04-27 06:05 50.76058 -0.03035 2340 ft 111 kts 273°
2026-04-27 06:05 50.76061 -0.04255 2342 ft 111 kts 273°
2026-04-27 06:06 50.76082 -0.05472 2355 ft 112 kts 275°
2026-04-27 06:06 50.76110 -0.06700 2353 ft 112 kts 276°
2026-04-27 06:06 50.76147 -0.07926 2351 ft 112 kts 277°
2026-04-27 06:06 50.76248 -0.09136 2364 ft 111 kts 281°
2026-04-27 06:07 50.76323 -0.10357 2364 ft 112 kts 278°
2026-04-27 06:07 50.76355 -0.11580 2378 ft 111 kts 273°
2026-04-27 06:07 50.76350 -0.12808 2359 ft 112 kts 274°
2026-04-27 06:07 50.76382 -0.14040 2360 ft 112 kts 275°
2026-04-27 06:08 50.76415 -0.15265 2354 ft 111 kts 278°
2026-04-27 06:08 50.76701 -0.16347 2358 ft 108 kts 313°
2026-04-27 06:08 50.77269 -0.17048 2466 ft 100 kts 338°
2026-04-27 06:08 50.77927 -0.17392 2544 ft 100 kts 350°
2026-04-27 06:09 50.78600 -0.17617 2640 ft 99 kts 355°
2026-04-27 06:09 50.79273 -0.17860 2737 ft 100 kts 348°
2026-04-27 06:09 50.79933 -0.18215 2816 ft 101 kts 347°
2026-04-27 06:09 50.80595 -0.18552 2906 ft 100 kts 349°
2026-04-27 06:10 50.81277 -0.18749 2978 ft 99 kts
2026-04-27 06:10 50.81955 -0.18790 3076 ft 97 kts
2026-04-27 06:10 50.82636 -0.18753 3148 ft 98 kts
2026-04-27 06:10 50.83314 -0.18771 3260 ft 99 kts 359°
2026-04-27 06:11 50.84004 -0.18852 3350 ft 98 kts
2026-04-27 06:11 50.84684 -0.18879 3445 ft 98 kts
2026-04-27 06:11 50.85365 -0.18840 3541 ft 96 kts 10°
2026-04-27 06:11 50.86024 -0.18671 3609 ft 96 kts 17°
2026-04-27 06:12 50.86684 -0.18477 3667 ft 96 kts 13°
2026-04-27 06:12 50.87358 -0.18381 3683 ft 100 kts
2026-04-27 06:12 50.88048 -0.18410 3685 ft 99 kts
2026-04-27 06:12 50.88736 -0.18481 3690 ft 99 kts 359°
2026-04-27 06:13 50.89425 -0.18616 3721 ft 99 kts 356°
2026-04-27 06:13 50.90110 -0.18813 3761 ft 102 kts 351°
2026-04-27 06:13 50.90797 -0.19083 3833 ft 100 kts 353°
2026-04-27 06:13 50.91484 -0.19284 3865 ft 101 kts 356°
2026-04-27 06:14 50.92169 -0.19487 3943 ft 100 kts 352°
2026-04-27 06:14 50.92847 -0.19822 3986 ft 103 kts 345°
2026-04-27 06:14 50.93528 -0.20161 4026 ft 102 kts 351°
2026-04-27 06:14 50.94220 -0.20341 4081 ft 100 kts
2026-04-27 06:15 50.94914 -0.20370 4136 ft 99 kts
2026-04-27 06:15 50.95606 -0.20401 4160 ft 101 kts
2026-04-27 06:15 50.96298 -0.20603 4214 ft 101 kts 352°
2026-04-27 06:15 50.96975 -0.20845 4162 ft 99 kts 352°
2026-04-27 06:16 50.97637 -0.21098 4127 ft 97 kts 352°
2026-04-27 06:16 50.98287 -0.21347 4088 ft 97 kts 352°
2026-04-27 06:16 50.98944 -0.21574 4078 ft 93 kts 353°
2026-04-27 06:16 50.99575 -0.21795 4095 ft 89 kts 353°
2026-04-27 06:17 51.00181 -0.22034 4082 ft 90 kts 348°
2026-04-27 06:17 51.00752 -0.22483 4073 ft 93 kts 333°
2026-04-27 06:17 51.01255 -0.23114 4056 ft 95 kts 323°
2026-04-27 06:17 51.01682 -0.23921 4049 ft 97 kts 309°
2026-04-27 06:18 51.01990 -0.24878 4054 ft 98 kts 299°
2026-04-27 06:18 51.02227 -0.25904 4032 ft 100 kts 293°
2026-04-27 06:18 51.02441 -0.26952 4035 ft 99 kts 291°
2026-04-27 06:18 51.02613 -0.28016 4015 ft 101 kts 284°
2026-04-27 06:19 51.02665 -0.29128 4024 ft 100 kts 274°
2026-04-27 06:19 51.02605 -0.30248 3996 ft 104 kts 262°
2026-04-27 06:19 51.02400 -0.31332 4042 ft 101 kts 249°
2026-04-27 06:19 51.02087 -0.32364 4015 ft 104 kts 242°
2026-04-27 06:20 51.01726 -0.33337 4012 ft 103 kts 237°
2026-04-27 06:20 51.01297 -0.34255 4009 ft 104 kts 230°
2026-04-27 06:20 51.00856 -0.35151 4005 ft 104 kts 236°
2026-04-27 06:20 51.00557 -0.36195 3987 ft 104 kts 255°
2026-04-27 06:21 51.00474 -0.37330 3996 ft 102 kts 272°
2026-04-27 06:21 51.00559 -0.38435 3965 ft 101 kts 284°
2026-04-27 06:21 51.00801 -0.39467 3897 ft 100 kts 308°
2026-04-27 06:21 51.01192 -0.40358 3845 ft 97 kts 311°
2026-04-27 06:22 51.01657 -0.41131 3771 ft 97 kts 330°
2026-04-27 06:22 51.02197 -0.41739 3723 ft 95 kts 330°
2026-04-27 06:22 51.02739 -0.42352 3640 ft 96 kts 331°
2026-04-27 06:22 51.03285 -0.42934 3560 ft 93 kts 335°
2026-04-27 06:23 51.03869 -0.43370 3521 ft 93 kts 342°
2026-04-27 06:23 51.04464 -0.43688 3546 ft 90 kts 351°
2026-04-27 06:23 51.05071 -0.43902 3522 ft 89 kts 355°
2026-04-27 06:23 51.05682 -0.44070 3500 ft 89 kts 356°
2026-04-27 06:24 51.06297 -0.44220 3512 ft 88 kts 358°
2026-04-27 06:24 51.06905 -0.44319 3482 ft 89 kts
2026-04-27 06:24 51.07518 -0.44268 3328 ft 88 kts 13°
2026-04-27 06:24 51.08103 -0.44086 3249 ft 83 kts 18°
2026-04-27 06:25 51.08651 -0.43809 3117 ft 82 kts 25°
2026-04-27 06:25 51.09150 -0.43436 3028 ft 77 kts 32°
2026-04-27 06:25 51.09583 -0.43021 3004 ft 71 kts 40°
2026-04-27 06:25 51.09926 -0.42443 2948 ft 74 kts 51°
2026-04-27 06:26 51.10241 -0.41802 2938 ft 73 kts 53°
2026-04-27 06:26 51.10532 -0.41124 2912 ft 74 kts 57°
2026-04-27 06:26 51.10810 -0.40426 2879 ft 74 kts 57°
2026-04-27 06:26 51.11104 -0.39740 2785 ft 75 kts 57°
2026-04-27 06:27 51.11357 -0.39021 2696 ft 75 kts 64°
2026-04-27 06:27 51.11538 -0.38245 2638 ft 75 kts 68°
2026-04-27 06:27 51.11695 -0.37464 2612 ft 73 kts 71°
2026-04-27 06:27 51.11822 -0.36667 2551 ft 75 kts 72°
2026-04-27 06:28 51.11959 -0.35894 2520 ft 72 kts 70°
2026-04-27 06:28 51.12094 -0.35133 2478 ft 71 kts 71°
2026-04-27 06:28 51.12209 -0.34363 2422 ft 72 kts 74°
2026-04-27 06:28 51.12322 -0.33586 2403 ft 71 kts 74°
2026-04-27 06:29 51.12438 -0.32825 2382 ft 72 kts 71°
2026-04-27 06:29 51.12572 -0.32049 2320 ft 73 kts 72°
2026-04-27 06:29 51.12703 -0.31307 2279 ft 68 kts 70°
2026-04-27 06:29 51.12831 -0.30569 2183 ft 68 kts 70°
2026-04-27 06:30 51.12978 -0.29852 2057 ft 69 kts 68°
2026-04-27 06:30 51.13140 -0.29129 1924 ft 70 kts 66°
2026-04-27 06:30 51.13294 -0.28395 1831 ft 70 kts 71°
2026-04-27 06:30 51.13415 -0.27667 1714 ft 65 kts 72°
2026-04-27 06:31 51.13522 -0.26969 1581 ft 65 kts 72°
2026-04-27 06:31 51.13643 -0.26275 1469 ft 65 kts 69°
2026-04-27 06:31 51.13786 -0.25601 1347 ft 65 kts 68°
2026-04-27 06:31 51.13918 -0.24907 1241 ft 66 kts 72°
2026-04-27 06:32 51.14037 -0.24185 1095 ft 68 kts 70°
2026-04-27 06:32 51.14166 -0.23447 904 ft 70 kts 72°
2026-04-27 06:32 51.14291 -0.22679 692 ft 73 kts 74°
2026-04-27 06:32 51.14412 -0.21881 476 ft 75 kts 76°
2026-04-27 06:33 51.14531 -0.21085 293 ft 72 kts 77°
2026-04-27 06:33 51.14631 -0.20367 203 ft 56 kts 78°
2026-04-27 06:33 51.14704 -0.19843 202 ft 46 kts 78°
2026-04-27 06:33 51.14767 -0.19396 203 ft 37 kts 78°
2026-04-27 06:34 51.14818 -0.19021 206 ft 32 kts 78°
2026-04-27 06:34 51.14867 -0.18695 199 ft 28 kts 70°
2026-04-27 06:34 51.14965 -0.18472 198 ft 23 kts 51°
2026-04-27 06:34 51.15057 -0.18294 207 ft 20 kts 49°
2026-04-27 06:35 51.15129 -0.18134 199 ft 15 kts 65°
2026-04-27 06:35 51.15205 -0.18072 199 ft 0 kts 21°
2026-04-27 06:37 51.15214 -0.18058 201 ft 7 kts 61°
2026-04-27 06:37 51.15237 -0.17921 202 ft 17 kts 78°
2026-04-27 06:38 51.15265 -0.17718 198 ft 22 kts 78°
2026-04-27 06:38 51.15297 -0.17468 198 ft 22 kts 83°
2026-04-27 06:38 51.15318 -0.17244 201 ft 19 kts 76°
2026-04-27 06:38 51.15345 -0.17047 198 ft 17 kts 79°
2026-04-27 06:39 51.15370 -0.16867 199 ft 16 kts 78°
2026-04-27 06:39 51.15395 -0.16700 201 ft 15 kts 77°
2026-04-27 06:39 51.15416 -0.16540 198 ft 15 kts 92°
2026-04-27 06:39 51.15334 -0.16481 201 ft 14 kts 173°
2026-04-27 06:40 51.15239 -0.16462 204 ft 14 kts 166°
2026-04-27 06:40 51.15137 -0.16427 199 ft 15 kts 168°
2026-04-27 06:40 51.15032 -0.16393 202 ft 15 kts 167°
2026-04-27 06:40 51.14952 -0.16429 199 ft 12 kts 252°
2026-04-27 06:41 51.14931 -0.16565 198 ft 13 kts 253°
2026-04-27 06:41 51.14912 -0.16704 203 ft 13 kts 257°
2026-04-27 06:41 51.14892 -0.16859 199 ft 17 kts 258°
2026-04-27 06:41 51.14869 -0.17031 202 ft 15 kts 258°
2026-04-27 06:42 51.14846 -0.17195 199 ft 15 kts 258°
2026-04-27 06:42 51.14821 -0.17315 203 ft 8 kts 179°
2026-04-27 06:42 51.14767 -0.17328 208 ft 9 kts 240°
2026-04-27 06:42 51.14732 -0.17408 199 ft 9 kts 237°
2026-04-27 06:43 51.14713 -0.17455 201 ft 0 kts 236°
2026-04-27 06:43 51.14713 -0.17456 201 ft 0 kts 236°